Weather Roundup
Issued by NWS Springfield, MO

Home | Current Version | Previous Version | Text Only | Print | Product List | Glossary On
Versions: 1 2 3 4 5 6 7 8 9 10 11 12 13 14 15 16 17 18 19 20 21 22 23 24 25 26 27 28 29 30 31 32 33 34 35 36 37 38 39 40 41 42 43 44 45 46 47 48 49 50
000
NZUS99 KSGF 012210
HRRSGF

HOURLY WEATHER
NATIONAL WEATHER SERVICE SPRINGFIELD MO
500 PM CDT TUE SEP 01 2015

......SGF CWA......

CITY           SKY/WX    TMP DP  RH WIND       PRES   REMARKS
SPRINGFIELD    MOSUNNY   88  65  46 S9        30.05F HX  90
JOPLIN         SUNNY     87  67  51 S14       30.03F HX  90
WEST PLAINS    PTSUNNY   82  68  62 SE5       30.09F
ROLLA          MOSUNNY   87  67  51 S12       30.05F HX  90
OSAGE BEACH    PTSUNNY   90  66  45 S7        30.04F HX  92
BRANSON        MOSUNNY   90  63  40 S12       30.07F HX  90

......SURROUNDING SGF CWA......

CITY           SKY/WX    TMP DP  RH WIND       PRES   REMARKS
CHANUTE        SUNNY     87  67  51 S17       29.99F HX  90
PARSONS        SUNNY     87  69  54 S8G17     30.00F HX  91
COFFEYVILLE    MOSUNNY   87  71  58 S9        29.99F HX  93
EMPORIA        MOSUNNY   88  64  44 S16G24    29.97F
GROVE OK       SUNNY     90  64  43 SE10      30.03F HX  91
ROGERS AR      MOSUNNY   87  65  47 S12       30.07F
SILOAM SPRINGS SUNNY     86  64  48 S10       30.04S
HARRISON AR    SUNNY     87  63  44 S10       30.07S
NEAR YELLVILLE MOSUNNY   90  66  45 SE5G16    30.03S HX  92

......KANSAS AND MISSOURI......

CITY           SKY/WX    TMP DP  RH WIND       PRES   REMARKS
KANSAS CTY INT MOSUNNY   90  68  48 S16       29.98F HX  94
DOWNTOWN KC    SUNNY     90  68  48 SW13      29.97F HX  94
COLUMBIA       MOSUNNY   90  69  50 VRB3      30.03F HX  94
SEDALIA        MOSUNNY   91  67  44 S13       30.03F HX  94
ST JOSEPH      SUNNY     89  68  49 S14       29.96F HX  93
ST LOUIS       MOSUNNY   91  68  46 S10       30.04F HX  95
SPIRIT OF STL  MOSUNNY   90  71  53 S6        30.02F HX  96
KIRKSVILLE     SUNNY     88  68  51 S8        30.02F HX  91
WICHITA        MOSUNNY   92  64  39 SE20G25   29.93F HX  93
TOPEKA         SUNNY     90  66  45 S10       29.96F HX  92
OLATHE         SUNNY     85  69  58 S9        29.99F

......TENNESSEE......

CITY           SKY/WX    TMP DP  RH WIND       PRES   REMARKS
MEMPHIS        CLOUDY    90  66  45 S8        30.05S HX  92
NASHVILLE      CLOUDY    88  63  43 E5        30.08F

......ARKANSAS.......

CITY           SKY/WX    TMP DP  RH WIND       PRES   REMARKS
FAYETTEVILLE   SUNNY     85  66  53 SE9       30.06F
FT SMITH       MOSUNNY   92  60  34 CALM      30.00S HX  91
LITTLE ROCK    CLOUDY    91  64  40 SE7       30.03F HX  92

......OKLAHOMA.......

CITY           SKY/WX    TMP DP  RH WIND       PRES   REMARKS
TULSA          MOSUNNY   91  70  49 SE16      29.96F HX  96
PONCA CITY     SUNNY     92  67  43 SE17      29.95S HX  95
MCALESTER      SUNNY     91  65  41 S8        30.00F HX  93
OKLAHOMA CITY  MOSUNNY   91  64  40 S12G21    29.97F HX  92

......IOWA............

CITY           SKY/WX    TMP DP  RH WIND       PRES   REMARKS
DES MOINES     CLOUDY    89  71  55 S8        29.94F HX  95
QUAD CITIES    SUNNY     90  71  53 SW9       29.97F HX  96

......ILLINOIS........

CITY           SKY/WX    TMP DP  RH WIND       PRES   REMARKS
QUINCY         MOSUNNY   90  67  46 S8        30.01F HX  93
CHICAGO        MOSUNNY   87  72  60 S12       29.99S HX  93



USA.gov is the U.S. government's official web portal to all federal, state and local government web resources and services.